DW2066 Weather Reports


Display with metric or nautical units.
time (UTC)temp
F
wind
direction
speed
MPH
gust
MPH
rain 1hr
in
rain 24hr
in
rain mn
in
humidity
%
barometer
mb
20190319213104 39 261 2.0 5.0 0.00 0.00 0.00 63 1014.8
20190319212605 38 252 2.0 5.0 0.00 0.00 0.00 66 1014.7
20190319212105 38 252 1.0 3.0 0.00 0.00 0.00 66 1014.8
20190319211604 38 252 1.0 3.0 0.00 0.00 0.00 67 1014.8
20190319210604 38 252 0.0 5.0 0.00 0.00 0.00 68 1014.7
20190319210105 38 252 1.0 5.0 0.00 0.00 0.00 69 1014.6
20190319205105 38 252 0.0 5.0 0.00 0.00 0.00 72 1014.6
20190319204604 38 252 3.0 5.0 0.00 0.00 0.00 71 1014.5
20190319204105 38 252 2.0 5.0 0.00 0.00 0.00 71 1014.5
20190319203106 38 252 2.0 6.0 0.00 0.00 0.00 73 1014.4
20190319202605 39 248 3.0 5.0 0.00 0.00 0.00 72 1014.4
20190319201605 39 248 2.0 7.0 0.00 0.00 0.00 72 1014.5
20190319201105 39 238 1.0 6.0 0.00 0.00 0.00 73 1014.4
20190319200605 38 231 1.0 5.0 0.00 0.00 0.00 73 1014.4
20190319200105 38 232 2.0 7.0 0.00 0.00 0.00 75 1014.4
20190319195605 38 231 3.0 7.0 0.00 0.00 0.00 74 1014.4
20190319195105 38 225 3.0 6.0 0.00 0.00 0.00 74 1014.4
20190319194105 38 210 1.0 6.0 0.00 0.00 0.00 74 1014.2
20190319193605 38 213 1.0 5.0 0.00 0.00 0.00 73 1014.1
20190319193105 38 213 0.0 7.0 0.00 0.00 0.00 72 1014.0
20190319192605 38 213 0.0 7.0 0.00 0.00 0.00 73 1013.9
20190319192105 38 207 1.0 7.0 0.00 0.00 0.00 72 1013.8
20190319191605 38 209 4.0 8.0 0.00 0.00 0.00 71 1013.8
20190319190105 38 207 3.0 7.0 0.00 0.00 0.00 70 1013.5
20190319185605 38 206 4.0 9.0 0.00 0.00 0.00 70 1013.5
20190319185104 38 204 6.0 10.0 0.00 0.00 0.00 71 1013.5
20190319184605 37 196 6.0 10.0 0.00 0.00 0.00 71 1013.5
20190319183605 36 186 3.0 8.0 0.00 0.00 0.00 71 1013.4
20190319183105 36 166 3.0 9.0 0.00 0.00 0.00 73 1013.1
20190319182605 35 180 2.0 9.0 0.00 0.00 0.00 74 1013.1
20190319182105 35 177 4.0 9.0 0.00 0.00 0.00 75 1013.0
20190319181605 34 182 1.0 7.0 0.00 0.00 0.00 78 1012.8
20190319181105 33 141 3.0 7.0 0.00 0.00 0.00 79 1012.8
20190319180605 33 141 1.0 7.0 0.00 0.00 0.00 81 1012.7
20190319180106 32 141 3.0 7.0 0.00 0.00 0.00 82 1012.6
20190319175105 31 165 3.0 5.0 0.00 0.00 0.00 82 1012.5
20190319174604 32 165 1.0 5.0 0.00 0.00 0.00 82 1012.4
20190319174105 32 165 0.0 5.0 0.00 0.00 0.00 82 1012.3
20190319173605 32 165 3.0 5.0 0.00 0.00 0.00 81 1012.3
20190319172605 32 165 0.0 3.0 0.00 0.00 0.00 82 1012.0
20190319172104 32 177 0.0 5.0 0.00 0.00 0.00 82 1012.0
20190319171605 32 177 0.0 5.0 0.00 0.00 0.00 82 1011.9
20190319171105 32 177 1.0 5.0 0.00 0.00 0.00 82 1011.9
20190319170105 33 178 2.0 8.0 0.00 0.00 0.00 81 1011.7
20190319165604 33 175 2.0 10.0 0.00 0.00 0.00 83 1011.6
20190319165105 33 195 5.0 10.0 0.00 0.00 0.00 83 1011.6
20190319164105 33 195 5.0 16.0 0.00 0.00 0.00 83 1011.3
20190319163604 33 189 6.0 16.0 0.00 0.00 0.00 83 1011.2
20190319163105 33 180 8.0 14.0 0.00 0.00 0.00 83 1011.0
20190319162605 33 210 7.0 13.0 0.00 0.00 0.00 83 1010.8
20190319162105 33 185 6.0 13.0 0.00 0.00 0.00 84 1010.7
20190319161605 33 208 8.0 14.0 0.00 0.00 0.00 84 1010.6
20190319160604 33 214 7.0 14.0 0.00 0.00 0.00 85 1010.3
20190319160107 33 203 7.0 14.0 0.00 0.00 0.00 86 1010.2
20190319155105 33 191 7.0 14.0 0.00 0.00 0.00 86 1010.0
20190319154105 33 188 7.0 17.0 0.00 0.00 0.00 85 1009.9
20190319153104 33 200 9.0 16.0 0.00 0.00 0.00 85 1009.7
20190319152605 33 206 8.0 16.0 0.00 0.00 0.00 85 1009.7
20190319152105 33 221 6.0 17.0 0.00 0.00 0.00 86 1009.7
20190319151605 33 200 9.0 21.0 0.00 0.00 0.00 86 1009.6
20190319151105 33 195 11.0 21.0 0.00 0.00 0.00 85 1009.4
20190319150605 33 203 10.0 21.0 0.00 0.00 0.00 85 1009.3
20190319145104 33 206 11.0 20.0 0.00 0.00 0.00 85 1008.9
20190319144105 33 198 9.0 21.0 0.00 0.00 0.00 85 1008.7
20190319143104 33 207 11.0 21.0 0.00 0.00 0.00 86 1008.7
20190319142605 33 210 10.0 22.0 0.00 0.00 0.00 86 1008.5
20190319141605 33 204 12.0 22.0 0.00 0.00 0.00 85 1008.4
20190319141104 33 190 10.0 18.0 0.00 0.00 0.00 85 1008.4
20190319140606 33 199 11.0 18.0 0.00 0.00 0.00 86 1008.2
20190319140105 33 195 9.0 20.0 0.00 0.00 0.00 86 1008.1
20190319135604 33 187 10.0 21.0 0.00 0.00 0.00 86 1007.9
20190319135105 33 201 10.0 21.0 0.00 0.00 0.00 86 1007.9
20190319134604 33 199 12.0 21.0 0.00 0.00 0.00 86 1007.7
20190319134105 33 203 10.0 23.0 0.00 0.00 0.00 86 1007.7
20190319133605 33 200 9.0 23.0 0.00 0.00 0.00 86 1007.5
20190319133104 33 196 13.0 23.0 0.00 0.00 0.00 86 1007.5
20190319132605 33 197 12.0 22.0 0.00 0.00 0.00 86 1007.3
20190319131605 33 200 10.0 24.0 0.00 0.00 0.00 87 1007.1
20190319130605 33 203 12.0 20.0 0.00 0.00 0.00 87 1006.9
20190319125105 34 198 10.0 18.0 0.00 0.00 0.00 86 1006.7
20190319124605 34 186 10.0 17.0 0.00 0.00 0.00 86 1006.7
20190319124104 34 189 9.0 17.0 0.00 0.00 0.00 86 1006.6
20190319123105 34 182 8.0 17.0 0.00 0.00 0.00 85 1006.6
20190319122604 34 200 8.0 17.0 0.00 0.00 0.00 85 1006.5
20190319122105 34 197 9.0 17.0 0.00 0.00 0.00 84 1006.5
20190319121604 34 189 9.0 18.0 0.00 0.00 0.00 84 1006.4
20190319121104 34 208 12.0 18.0 0.00 0.00 0.00 84 1006.4
20190319120604 34 192 9.0 20.0 0.00 0.00 0.00 84 1006.3
20190319115604 34 192 10.0 21.0 0.00 0.00 0.00 85 1006.0
20190319114105 34 197 11.0 20.0 0.00 0.00 0.00 85 1005.8
20190319113605 34 194 9.0 20.0 0.00 0.00 0.00 85 1005.8
20190319113105 34 193 8.0 18.0 0.00 0.01 0.00 85 1005.7
20190319112105 34 194 10.0 20.0 0.00 0.01 0.00 85 1005.6
20190319111605 34 194 9.0 17.0 0.00 0.01 0.00 85 1005.5
20190319111105 34 194 9.0 16.0 0.00 0.01 0.00 86 1005.3
20190319110105 34 190 10.0 20.0 0.00 0.01 0.00 87 1005.2
20190319105605 34 188 7.0 20.0 0.00 0.01 0.00 87 1005.2
20190319105104 34 203 10.0 20.0 0.00 0.01 0.00 87 1005.1
20190319104605 34 196 10.0 21.0 0.00 0.01 0.00 87 1005.0
20190319104105 34 210 10.0 21.0 0.00 0.01 0.00 88 1004.9
20190319103105 34 196 12.0 20.0 0.00 0.01 0.00 88 1004.7
20190319102604 34 194 10.0 20.0 0.00 0.01 0.00 87 1004.6
20190319101604 34 186 11.0 23.0 0.00 0.01 0.00 87 1004.4
20190319101106 34 192 13.0 22.0 0.00 0.01 0.00 87 1004.2
20190319100604 34 199 13.0 22.0 0.00 0.01 0.00 86 1004.0
20190319095605 34 197 12.0 22.0 0.00 0.01 0.00 85 1003.6
20190319094104 34 195 12.0 22.0 0.00 0.01 0.00 85 1003.3
20190319093104 34 193 9.0 22.0 0.00 0.01 0.00 85 1003.2
20190319092605 35 204 10.0 22.0 0.00 0.01 0.00 84 1003.1
20190319091605 35 198 15.0 26.0 0.00 0.01 0.00 85 1002.7
20190319090604 35 195 14.0 24.0 0.00 0.01 0.00 87 1002.6
20190319090105 35 194 15.0 24.0 0.00 0.01 0.00 88 1002.5
20190319085605 35 196 13.0 24.0 0.00 0.01 0.00 89 1002.5
20190319085104 35 202 13.0 24.0 0.00 0.01 0.00 89 1002.4
20190319084104 34 187 12.0 22.0 0.00 0.01 0.00 90 1002.3
20190319083605 34 188 11.0 18.0 0.00 0.01 0.00 90 1002.2
20190319083105 34 207 12.0 18.0 0.00 0.01 0.00 90 1002.1
20190319082604 34 196 11.0 20.0 0.00 0.01 0.00 90 1002.1
20190319082104 34 188 11.0 20.0 0.00 0.01 0.00 91 1001.8
20190319081106 35 194 12.0 20.0 0.00 0.01 0.00 91 1001.7
20190319080604 35 202 10.0 22.0 0.00 0.01 0.00 91 1001.5
20190319080105 35 191 10.0 22.0 0.00 0.01 0.00 91 1001.4
20190319075604 35 202 14.0 22.0 0.00 0.01 0.01 91 1001.2
20190319072605 35 212 5.0 12.0 0.00 0.01 0.01 90 1000.5
20190319072105 35 189 5.0 12.0 0.00 0.01 0.01 90 1000.5
20190319070605 36 191 5.0 12.0 0.00 0.01 0.01 91 1000.3
20190319070106 36 213 3.0 14.0 0.00 0.01 0.01 91 1000.2
20190319065105 36 205 6.0 14.0 0.00 0.01 0.01 91 1000.0
20190319064604 36 207 5.0 10.0 0.00 0.01 0.01 91 1000.0
20190319062605 36 220 3.0 7.0 0.00 0.01 0.01 91 999.7
20190319062105 36 219 4.0 7.0 0.00 0.01 0.01 91 999.5
20190319061605 36 215 2.0 10.0 0.00 0.01 0.01 91 999.5
20190319060605 36 195 3.0 12.0 0.00 0.01 0.01 91 999.2
20190319060105 36 196 5.0 14.0 0.00 0.01 0.01 91 999.1
20190319055604 36 197 7.0 17.0 0.00 0.01 0.01 91 999.0
20190319054604 37 215 7.0 18.0 0.00 0.01 0.01 91 998.7
20190319053105 37 206 7.0 16.0 0.00 0.01 0.01 91 998.4
20190319052105 37 219 2.0 7.0 0.00 0.01 0.01 91 998.0
20190319051605 37 219 2.0 6.0 0.00 0.01 0.01 90 998.0
20190319051105 37 219 2.0 3.0 0.00 0.01 0.01 90 997.8
20190319050605 37 219 0.0 3.0 0.00 0.01 0.01 90 997.6
20190319045605 37 219 3.0 6.0 0.00 0.01 0.01 90 997.4
20190319045105 37 219 2.0 6.0 0.00 0.01 0.01 90 997.3
20190319044605 37 219 2.0 5.0 0.00 0.01 0.01 89 997.2
20190319044104 37 219 0.0 0.0 0.00 0.01 0.01 89 997.1
20190319043604 37 219 0.0 3.0 0.00 0.01 0.01 88 997.1
20190319043104 38 219 0.0 3.0 0.00 0.01 0.01 88 997.0
20190319042604 38 219 0.0 0.0 0.00 0.01 0.01 88 996.7
20190319040604 38 219 0.0 2.0 0.00 0.01 0.01 86 996.5
20190319034104 39 219 1.0 3.0 0.00 0.01 0.01 86 996.2
20190319033605 39 219 1.0 3.0 0.00 0.01 0.01 85 996.1
20190319032605 39 219 1.0 3.0 0.00 0.01 0.01 83 995.8
20190319032105 39 219 0.0 0.0 0.00 0.01 0.01 82 995.8
20190319031604 40 219 0.0 3.0 0.00 0.01 0.01 81 995.8
20190319031104 40 219 0.0 9.0 0.00 0.01 0.01 80 995.7
20190319030605 41 219 2.0 9.0 0.00 0.01 0.01 78 995.7
20190319025605 43 244 2.0 3.0 0.00 0.01 0.01 75 995.4
20190319025104 43 244 1.0 3.0 0.00 0.01 0.01 75 995.3
20190319024605 43 244 0.0 3.0 0.00 0.01 0.01 75 995.2
20190319024104 44 244 0.0 0.0 0.00 0.01 0.01 74 995.1
20190319023604 44 244 0.0 0.0 0.00 0.01 0.01 73 995.2
20190319023104 44 244 0.0 0.0 0.00 0.01 0.01 72 995.1
20190319022605 44 244 0.0 0.0 0.00 0.01 0.01 72 995.0
20190319021604 45 244 1.0 7.0 0.00 0.01 0.01 71 994.8
20190319021104 45 244 2.0 7.0 0.00 0.01 0.01 71 994.7
20190319020604 45 244 2.0 7.0 0.00 0.01 0.01 70 994.7
20190319020105 46 200 2.0 6.0 0.00 0.01 0.01 68 994.7
20190319015104 47 200 1.0 8.0 0.00 0.01 0.01 66 994.6
20190319013606 48 155 2.0 7.0 0.00 0.01 0.01 66 994.6
20190319013105 48 146 2.0 9.0 0.00 0.01 0.01 65 994.6
20190319012604 48 156 4.0 9.0 0.00 0.01 0.01 64 994.5
20190319012105 48 129 3.0 9.0 0.00 0.01 0.01 65 994.4
20190319011605 48 128 4.0 10.0 0.00 0.01 0.01 65 994.3
20190319011105 48 130 6.0 10.0 0.00 0.01 0.01 65 994.4
20190319010105 48 134 6.0 12.0 0.00 0.01 0.01 64 994.3
20190319005105 48 123 6.0 12.0 0.00 0.01 0.01 63 994.2
20190319004105 48 138 4.0 10.0 0.00 0.01 0.01 63 994.3
20190319003605 49 138 6.0 12.0 0.00 0.01 0.01 63 994.3
20190319003104 49 140 6.0 12.0 0.00 0.01 0.01 63 994.3
20190319002604 49 150 6.0 13.0 0.00 0.01 0.01 62 994.3
20190319002104 49 131 7.0 13.0 0.00 0.01 0.01 62 994.3
20190319001604 49 135 8.0 14.0 0.00 0.01 0.01 62 994.3
20190319000604 49 130 10.0 13.0 0.00 0.01 0.01 61 994.3
20190319000105 50 99 8.0 16.0 0.00 0.01 0.01 61 994.2
20190318235605 50 114 9.0 16.0 0.00 0.01 0.01 61 994.3
20190318235105 49 122 12.0 16.0 0.00 0.01 0.01 61 994.4
20190318234605 49 121 9.0 15.0 0.00 0.01 0.01 63 994.4
20190318234104 49 127 7.0 12.0 0.00 0.01 0.01 63 994.3
20190318233104 49 142 6.0 12.0 0.00 0.01 0.01 63 994.5
20190318231605 49 125 7.0 13.0 0.00 0.01 0.01 64 994.6
20190318231104 49 128 9.0 12.0 0.00 0.01 0.01 63 994.7
20190318230604 49 122 5.0 12.0 0.00 0.01 0.01 63 994.6
20190318230106 49 117 6.0 15.0 0.00 0.01 0.01 63 994.7
20190318225604 49 125 10.0 15.0 0.00 0.01 0.01 63 994.8
20190318225104 49 126 6.0 16.0 0.00 0.01 0.01 63 994.9
20190318224104 49 129 9.0 15.0 0.00 0.01 0.01 63 995.0
20190318223604 49 122 7.0 13.0 0.00 0.01 0.01 64 995.0
20190318222604 49 126 7.0 17.0 0.00 0.01 0.01 63 995.0
20190318222104 49 130 7.0 17.0 0.00 0.01 0.01 64 995.0
20190318221604 49 139 9.0 17.0 0.00 0.01 0.01 65 995.1
20190318221104 49 126 12.0 21.0 0.00 0.01 0.01 65 995.1
20190318220605 48 120 12.0 21.0 0.00 0.01 0.01 65 995.2
20190318220105 48 110 13.0 21.0 0.00 0.01 0.01 65 995.2
20190318215605 48 122 12.0 18.0 0.00 0.01 0.01 66 995.2
20190318215105 48 135 11.0 20.0 0.00 0.01 0.01 66 995.3
20190318214604 48 131 12.0 20.0 0.00 0.01 0.01 66 995.2
20190318214104 48 131 12.0 21.0 0.00 0.01 0.01 66 995.3